{"data":{"norad_id":52158,"intl_designator":"2022-033B","name":"GNOMES-3","alt_names":[],"object_type":"PAYLOAD","status":"ACTIVE","operator":null,"country":"US","launch_date":"2022-04-01","launch_site_code":"AFETR","launch_vehicle":null,"mission":null,"orbit_class":"UNKNOWN","rcs_meters":null,"size_class":null,"mass_kg":null,"dimensions":null,"purposes":[],"wikipedia_slug":null,"has_3d_model":false,"image_url":null,"decayed_at":null,"tle_current":{"epoch":"2026-09-20T00:41:18.844512Z","epoch_age_seconds":161638,"freshness":"FRESH","line1":"1 52158U 22033B   26263.02869033  .00001048  00000+0  12796-3 0  9991","line2":"2 52158  97.8159 337.6237 0011104  20.2864 339.8791 14.85363152241412","mean_motion":14.85363152,"eccentricity":0.0011104,"inclination_deg":97.8159,"raan_deg":337.6237,"arg_perigee_deg":20.2864,"mean_anomaly_deg":339.8791,"bstar":0.00012796,"rev_number":24141,"period_min":96.94598913815,"perigee_km":604.68388417565,"apogee_km":620.20857140792,"semimajor_km":6990.5832277918,"source":"CELESTRAK","updated_at":"2026-09-21T09:00:08.492407Z"}}}